This is the latest recevied weather packets stored in our database for station/object K7TUS-6. If no packets are shown the sender has not sent any weather packets the latest 1 day(s).
| Time | Temp. | Humidity | Pressure | Rain* | Wind** | Luminosity | Snow |
|---|---|---|---|---|---|---|---|
| 1778073604 | 3.89° C | 1% | 979.7 hPa | - | - | - | - |
| 1778072708 | 3.33° C | 1% | 978.6 hPa | - | - | - | - |
| 1778072106 | 3.33° C | 1% | 978.4 hPa | - | - | - | - |
| 1778067603 | 3.33° C | 12% | 979.6 hPa | - | - | - | - |
| 1778066407 | 2.78° C | 13% | 978.4 hPa | - | - | - | - |
| 1778066106 | 2.22° C | 10% | 978.5 hPa | - | - | - | - |
| 1778064604 | 2.22° C | 24% | 978.4 hPa | - | - | - | - |
| 1778063702 | 2.22° C | 37% | 977.9 hPa | - | - | - | - |
| 1778063107 | 2.78° C | 29% | 978.1 hPa | - | - | - | - |
| 1778061905 | 1.67° C | 31% | 978.5 hPa | - | - | - | - |
| 1778060108 | 1.67° C | 43% | 977.4 hPa | - | - | - | - |
| 1778059508 | 1.67° C | 42% | 978.1 hPa | - | - | - | - |
| 1778059208 | 1.67° C | 41% | 978.7 hPa | - | - | - | - |
| 1778058606 | 2.22° C | 38% | 977.6 hPa | - | - | - | - |
| 1778057704 | 2.22° C | 40% | 978.5 hPa | - | - | - | - |
| 1778056808 | 2.22° C | 38% | 978.9 hPa | - | - | - | - |
| 1778055006 | 2.78° C | 32% | 978.6 hPa | - | - | - | - |
| 1778054705 | 2.78° C | 38% | 979.2 hPa | - | - | - | - |
| 1778053804 | 2.22° C | 32% | 978.6 hPa | - | - | - | - |
| 1778052908 | 2.78° C | 29% | 979.5 hPa | - | - | - | - |
| 1778052307 | 3.33° C | 27% | 978.5 hPa | - | - | - | - |
| 1778051706 | 2.78° C | 30% | 978.3 hPa | - | - | - | - |
| 1778050805 | 2.78° C | 32% | 978.9 hPa | - | - | - | - |
| 1778049609 | 2.22° C | 30% | 978 hPa | - | - | - | - |
| 1778049008 | 2.78° C | 25% | 977.9 hPa | - | - | - | - |
* Rain since midnight (hover to see other rain measurements)
** Current wind speed in m/s (hover to see current wind gust speed)